Location: Unspecified
(47.5840°N, 122.3000°W)
Time: 17:32:28
(UTC+00:00)

Cosmos 2219 Rocket - Pass Details

Date: 09 December 2025
Orbit: 827 x 845 km, 71.0° (Epoch: 22 January)

Event Time Altitude Azimuth Distance (km) Brightness Sun altitude
Exits shadow 14:52:32 - 329° (NNW) 2,939 4.5 -8.6°
Reaches altitude 10° 14:53:46 10° 328° (NNW) 2,470 4.1 -8.5°
Maximum altitude 14:59:22 65° 248° (WSW) 922 2.3 -7.6°
Drops below altitude 10° 15:04:55 10° 167° (SSE) 2,442 5.2 -6.8°
Sets 15:07:21 0° 165° (SSE) 3,369 6.0 -6.4°
